N3TJJ-11 Weather Reports


time (UTC)temp
C
wind
direction
speed
KPH
gust
KPH
rain 1hr
cm
rain 24hr
cm
rain mn
cm
humidity
%
barometer
mb
20260507011343 16 327 9.7 14.5 0.08 0.53 0.53 90 1007.3
20260507011141 16 296 9.7 14.5 0.08 0.53 0.53 90 1007.5
20260507010342 16 324 9.7 16.1 0.05 0.51 0.51 89 1007.5
20260507005941 16 309 9.7 16.1 0.03 0.48 0.48 89 1007.5
20260507005342 16 291 9.7 16.1 0.00 0.46 0.46 88 1007.1
20260507004741 16 289 6.4 14.5 0.00 0.46 0.46 88 1007.1
20260507004342 16 281 3.2 14.5 0.00 0.46 0.46 88 1007.0
20260507003541 17 289 4.8 6.4 0.00 0.46 0.46 88 1006.9
20260507003342 17 259 4.8 8.0 0.00 0.46 0.46 88 1006.9
20260507002341 17 251 4.8 11.3 0.00 0.46 0.46 88 1006.8
20260507001342 17 254 4.8 4.8 0.00 0.46 0.46 88 1006.4
20260507001141 17 254 4.8 4.8 0.00 0.46 0.46 88 1006.5
20260507000343 17 254 4.8 6.4 0.00 0.46 0.46 87 1006.2
20260506235941 17 254 6.4 9.7 0.00 0.46 0.46 87 1006.2
20260506235342 17 251 6.4 8.0 0.00 0.46 0.46 87 1006.1
20260506234741 17 245 6.4 8.0 0.00 0.46 0.46 87 1006.0
20260506234342 17 257 6.4 8.0 0.00 0.46 0.46 87 1006.0
20260506233541 17 255 6.4 6.4 0.00 0.46 0.46 86 1005.9
20260506233342 17 254 6.4 6.4 0.00 0.46 0.46 86 1005.9
20260506232341 17 250 8.0 12.9 0.00 0.46 0.46 86 1005.9
20260506231342 17 268 9.7 14.5 0.00 0.46 0.46 85 1005.9
20260506231141 17 263 9.7 14.5 0.00 0.46 0.46 85 1005.9
20260506230343 17 242 11.3 16.1 0.00 0.46 0.46 85 1005.9
20260506225941 17 255 11.3 14.5 0.00 0.46 0.46 85 1005.9
20260506225342 17 251 14.5 19.3 0.00 0.46 0.46 84 1005.8
20260506224741 17 228 14.5 19.3 0.00 0.46 0.46 84 1005.9
20260506224342 17 261 12.9 19.3 0.00 0.46 0.46 84 1005.9
20260506223541 18 263 11.3 16.1 0.00 0.46 0.46 84 1005.8
20260506223342 18 220 11.3 16.1 0.00 0.46 0.46 84 1005.8
20260506222415 18 235 12.9 20.9 0.00 0.46 0.46 84 1005.8
20260506222341 18 235 12.9 20.9 0.00 0.46 0.46 84 1005.8
20260506221342 18 255 11.3 16.1 0.00 0.46 0.46 84 1005.9
20260506221141 18 235 11.3 17.7 0.00 0.46 0.46 84 1005.8
20260506220342 18 248 8.0 14.5 0.00 0.46 0.46 84 1005.7
20260506215941 18 230 8.0 11.3 0.00 0.46 0.46 84 1005.7
20260506215342 18 241 8.0 11.3 0.00 0.46 0.46 84 1005.7
20260506214741 18 261 8.0 12.9 0.00 0.46 0.46 84 1005.6
20260506214343 18 229 8.0 16.1 0.00 0.46 0.46 84 1005.5
20260506213541 18 196 6.4 12.9 0.00 0.46 0.46 84 1005.5
20260506213343 18 243 6.4 12.9 0.00 0.46 0.46 84 1005.4
20260506212341 17 242 6.4 12.9 0.00 0.46 0.46 85 1005.3
20260506211342 17 229 11.3 17.7 0.00 0.46 0.46 84 1005.2
20260506211141 17 241 11.3 17.7 0.00 0.46 0.46 84 1005.3
20260506210342 17 233 12.9 19.3 0.00 0.46 0.46 84 1005.1
20260506205941 17 238 12.9 20.9 0.00 0.46 0.46 85 1005.1
20260506205344 17 246 9.7 19.3 0.00 0.46 0.46 85 1005.1
20260506204741 17 232 9.7 14.5 0.00 0.46 0.46 85 1005.1
20260506204345 17 219 11.3 14.5 0.00 0.46 0.46 85 1005.2
20260506203541 17 237 12.9 22.5 0.00 0.46 0.46 84 1005.1
20260506203342 17 243 12.9 19.3 0.00 0.46 0.46 84 1005.2
20260506202341 17 242 12.9 20.9 0.00 0.46 0.46 85 1005.1
20260506201342 17 241 12.9 19.3 0.00 0.46 0.46 86 1005.1
20260506201141 17 227 12.9 20.9 0.00 0.46 0.46 86 1005.1
20260506200343 17 227 12.9 22.5 0.00 0.46 0.46 86 1005.1
20260506195941 17 252 12.9 19.3 0.00 0.46 0.46 87 1005.0
20260506195342 17 207 12.9 19.3 0.00 0.46 0.46 87 1004.9
20260506194741 16 240 12.9 24.1 0.00 0.46 0.46 88 1005.1
20260506194343 16 244 14.5 17.7 0.00 0.46 0.46 88 1005.2
20260506193541 16 257 16.1 24.1 0.00 0.46 0.46 88 1005.2
20260506193343 16 240 14.5 24.1 0.00 0.46 0.46 88 1005.2
20260506192341 16 244 16.1 25.7 0.00 0.46 0.46 88 1005.4
20260506191343 16 227 17.7 27.4 0.00 0.46 0.46 87 1005.4
20260506191141 16 249 17.7 24.1 0.00 0.46 0.46 87 1005.4
20260506190342 16 246 17.7 27.4 0.00 0.46 0.46 89 1005.4
20260506185941 16 232 17.7 24.1 0.00 0.46 0.46 89 1005.4
20260506185344 16 230 17.7 29.0 0.00 0.46 0.46 89 1005.3
20260506184741 16 249 17.7 27.4 0.00 0.46 0.46 90 1005.4
20260506184343 16 261 16.1 29.0 0.00 0.46 0.46 90 1005.3
20260506183541 16 242 16.1 27.4 0.00 0.46 0.46 91 1005.3
20260506183343 15 254 16.1 29.0 0.00 0.46 0.46 91 1005.3
20260506182341 15 220 17.7 27.4 0.00 0.46 0.46 91 1005.6
20260506181343 15 236 19.3 27.4 0.00 0.46 0.46 92 1005.7
20260506181141 15 228 19.3 29.0 0.00 0.46 0.46 92 1005.7
20260506180343 15 200 17.7 24.1 0.00 0.46 0.46 92 1005.9
20260506175941 15 252 17.7 32.2 0.00 0.46 0.46 92 1005.9
20260506175343 14 233 16.1 25.7 0.00 0.46 0.46 92 1006.1
20260506174741 14 233 16.1 27.4 0.00 0.46 0.46 92 1005.9
20260506174343 14 214 16.1 27.4 0.00 0.46 0.46 92 1006.1
20260506173541 14 237 16.1 25.7 0.00 0.46 0.46 92 1005.9
20260506173343 14 225 17.7 25.7 0.00 0.46 0.46 92 1005.9
20260506172341 14 248 19.3 32.2 0.00 0.46 0.46 92 1005.8
20260506171344 14 244 19.3 27.4 0.00 0.46 0.46 92 1005.8
20260506171141 14 240 19.3 27.4 0.00 0.46 0.46 92 1005.8
20260506170343 14 246 17.7 33.8 0.00 0.46 0.46 92 1005.7
20260506165343 14 226 17.7 27.4 0.00 0.46 0.46 92 1005.8
20260506164343 14 238 17.7 27.4 0.05 0.46 0.46 92 1005.7
20260506163343 14 232 19.3 35.4 0.08 0.46 0.46 92 1005.9
20260506162343 14 209 16.1 27.4 0.10 0.46 0.46 92 1005.8
20260506161359 14 204 16.1 29.0 0.15 0.46 0.46 93 1005.9
20260506160344 14 185 16.1 45.1 0.20 0.46 0.46 92 1005.6
20260506155343 14 237 14.5 30.6 0.23 0.46 0.46 92 1005.6
20260506154343 14 232 14.5 25.7 0.20 0.41 0.41 92 1005.6
20260506153344 14 212 14.5 27.4 0.20 0.38 0.38 92 1006.2
20260506152343 14 262 14.5 27.4 0.20 0.36 0.36 92 1006.6
20260506151343 14 245 14.5 25.7 0.18 0.30 0.30 92 1006.6
20260506150343 14 245 14.5 25.7 0.13 0.25 0.25 92 1006.7
20260506145343 14 211 12.9 25.7 0.13 0.23 0.23 92 1006.7
20260506144343 14 239 12.9 20.9 0.13 0.20 0.20 91 1006.6
20260506143343 14 236 11.3 20.9 0.13 0.18 0.18 91 1006.5
20260506142343 14 184 11.3 25.7 0.13 0.15 0.15 91 1006.5
20260506141344 14 233 11.3 24.1 0.13 0.13 0.13 91 1006.6
20260506140343 14 252 9.7 17.7 0.13 0.13 0.13 90 1006.7
20260506135942 14 229 9.7 20.9 0.10 0.10 0.10 90 1006.6
20260506135349 14 167 9.7 19.3 0.10 0.10 0.10 90 1006.6
20260506134742 14 154 8.0 19.3 0.08 0.08 0.08 89 1006.6
20260506134343 15 230 9.7 16.1 0.08 0.08 0.08 89 1006.6
20260506133542 15 229 9.7 17.7 0.05 0.05 0.05 88 1006.6
20260506133343 15 238 9.7 17.7 0.05 0.05 0.05 88 1006.7
20260506132342 15 222 9.7 16.1 0.03 0.03 0.03 87 1006.6
20260506131343 15 242 9.7 25.7 0.00 0.00 0.00 86 1006.6
20260506131142 15 242 9.7 25.7 0.00 0.00 0.00 86 1006.6
20260506130343 15 236 11.3 20.9 0.00 0.00 0.00 86 1006.8
20260506125942 15 239 11.3 24.1 0.00 0.00 0.00 85 1006.8
20260506125343 15 219 9.7 20.9 0.00 0.00 0.00 85 1006.7
20260506124742 15 242 11.3 19.3 0.00 0.00 0.00 84 1006.9
20260506124343 15 182 11.3 24.1 0.00 0.00 0.00 84 1006.8
20260506123542 15 217 12.9 20.9 0.00 0.00 0.00 84 1006.9
20260506123343 15 229 12.9 19.3 0.00 0.00 0.00 84 1006.9
20260506122415 15 229 12.9 20.9 0.00 0.00 0.00 84 1007.0
20260506122342 15 229 12.9 20.9 0.00 0.00 0.00 84 1007.0
20260506121344 16 203 14.5 25.7 0.00 0.00 0.00 83 1006.9
20260506121142 16 228 14.5 25.7 0.00 0.00 0.00 83 1006.8
20260506120343 16 243 14.5 24.1 0.00 0.00 0.00 84 1006.7
20260506115942 15 248 14.5 25.7 0.00 0.00 0.00 84 1006.6
20260506115343 15 232 16.1 27.4 0.00 0.00 0.00 84 1006.6
20260506114742 15 234 17.7 25.7 0.00 0.00 0.00 84 1006.5
20260506114343 15 243 17.7 32.2 0.00 0.00 0.00 83 1006.4
20260506113542 15 226 16.1 24.1 0.00 0.00 0.00 83 1006.4
20260506113343 15 230 17.7 24.1 0.00 0.00 0.00 83 1006.3
20260506112342 15 184 16.1 27.4 0.00 0.00 0.00 83 1006.3
20260506111343 15 228 16.1 30.6 0.00 0.00 0.00 83 1006.3
20260506111142 15 215 16.1 30.6 0.00 0.00 0.00 83 1006.2
20260506110343 15 240 14.5 20.9 0.00 0.00 0.00 83 1006.2
20260506105942 15 240 14.5 25.7 0.00 0.00 0.00 83 1006.1
20260506105343 15 214 16.1 24.1 0.00 0.00 0.00 83 1006.0
20260506104742 15 244 16.1 33.8 0.00 0.00 0.00 83 1006.0
20260506104343 15 196 14.5 33.8 0.00 0.00 0.00 83 1005.9
20260506103542 15 227 16.1 29.0 0.00 0.00 0.00 83 1006.0
20260506103346 15 237 14.5 29.0 0.00 0.00 0.00 83 1006.0
20260506102342 15 233 14.5 27.4 0.00 0.00 0.00 83 1005.8
20260506101343 16 212 14.5 29.0 0.00 0.00 0.00 82 1005.9
20260506101142 16 202 14.5 29.0 0.00 0.00 0.00 82 1005.9
20260506100353 16 239 14.5 27.4 0.00 0.00 0.00 82 1006.0
20260506095942 16 180 14.5 27.4 0.00 0.00 0.00 81 1005.9
20260506095343 16 227 14.5 27.4 0.00 0.00 0.00 81 1005.8
20260506094742 16 226 12.9 20.9 0.00 0.00 0.00 81 1005.9
20260506094343 16 209 14.5 27.4 0.00 0.00 0.00 81 1005.9
20260506093542 16 226 14.5 25.7 0.00 0.00 0.00 80 1005.7
20260506093344 16 239 14.5 30.6 0.00 0.00 0.00 80 1005.8
20260506092342 16 227 14.5 29.0 0.00 0.00 0.00 79 1005.9
20260506091343 16 196 17.7 33.8 0.00 0.00 0.00 79 1006.0
20260506091142 16 205 16.1 33.8 0.00 0.00 0.00 79 1006.0
20260506090343 16 179 16.1 25.7 0.00 0.00 0.00 78 1006.1
20260506085942 16 205 14.5 32.2 0.00 0.00 0.00 78 1006.1
20260506085343 16 240 14.5 22.5 0.00 0.00 0.00 78 1006.0
20260506084742 16 207 12.9 29.0 0.00 0.00 0.00 78 1006.2
20260506084343 16 181 12.9 25.7 0.00 0.00 0.00 78 1006.2
20260506083542 16 178 11.3 22.5 0.00 0.00 0.00 77 1006.2
20260506083343 16 227 11.3 22.5 0.00 0.00 0.00 77 1006.2
20260506082342 16 171 12.9 27.4 0.00 0.00 0.00 77 1006.2
20260506081353 16 198 12.9 29.0 0.00 0.00 0.00 76 1006.2
20260506081142 16 229 11.3 29.0 0.00 0.00 0.00 76 1006.3
20260506080347 16 205 11.3 22.5 0.00 0.00 0.00 76 1006.3
20260506073344 17 232 9.7 19.3 0.00 0.00 0.00 74 1006.5
20260506072342 17 182 11.3 25.7 0.00 0.00 0.00 74 1006.5
20260506071343 17 215 11.3 22.5 0.00 0.00 0.00 73 1006.5
20260506071142 17 242 11.3 27.4 0.00 0.00 0.00 73 1006.5
20260506070344 17 235 9.7 19.3 0.00 0.00 0.00 73 1006.7
20260506062342 17 198 9.7 20.9 0.00 0.00 0.00 70 1007.1
20260506061348 17 202 11.3 16.1 0.00 0.00 0.00 69 1007.2
20260506061142 17 244 11.3 16.1 0.00 0.00 0.00 69 1007.2
20260506060345 17 234 9.7 16.1 0.00 0.00 0.00 69 1007.3
20260506051344 17 220 11.3 19.3 0.00 0.00 0.00 66 1007.6
20260506051143 17 193 11.3 20.9 0.00 0.00 0.00 66 1007.6
20260506050344 17 207 11.3 19.3 0.00 0.00 0.00 66 1007.7
20260506044743 17 238 9.7 16.1 0.00 0.00 0.00 65 1007.8
20260506044346 17 180 9.7 19.3 0.00 0.00 0.00 65 1007.8
20260506043543 17 183 9.7 20.9 0.00 0.00 0.00 64 1007.9
20260506043344 17 240 9.7 20.9 0.00 0.00 0.00 64 1007.8
20260506042343 17 165 11.3 17.7 0.00 0.00 0.00 63 1007.9
20260506041344 17 238 9.7 19.3 0.00 0.00 0.00 63 1007.9
20260506041143 17 205 9.7 19.3 0.00 0.00 0.00 62 1007.8
20260506040344 17 234 9.7 16.1 0.00 0.00 0.00 62 1007.8
20260506035943 18 178 9.7 16.1 0.00 0.00 0.00 61 1007.8
20260506035345 18 230 8.0 17.7 0.00 0.00 0.00 61 1007.9
20260506034743 18 227 8.0 16.1 0.00 0.00 0.00 60 1007.9
20260506034344 18 221 8.0 16.1 0.00 0.00 0.00 60 1007.9
20260506033543 18 211 8.0 14.5 0.00 0.00 0.00 60 1007.8
20260506033346 18 198 8.0 16.1 0.00 0.00 0.00 60 1007.8
20260506032343 18 221 8.0 17.7 0.00 0.00 0.00 60 1007.8
20260506031344 18 196 9.7 16.1 0.00 0.00 0.00 61 1007.9
20260506031143 18 221 9.7 16.1 0.00 0.00 0.00 60 1007.8
20260506030344 18 213 11.3 19.3 0.00 0.00 0.00 60 1007.8
20260506025943 18 192 9.7 17.7 0.00 0.00 0.00 61 1007.8
20260506025749 18 217 8.0 14.5 0.00 0.00 0.00 61 1007.9
20260506025346 18 210 8.0 17.7 0.00 0.00 0.00 61 1007.8
20260506024743 18 228 8.0 16.1 0.00 0.00 0.00 61 1007.8
20260506024344 18 217 8.0 14.5 0.00 0.00 0.00 61 1007.9
20260506023543 18 232 8.0 17.7 0.00 0.00 0.00 61 1007.9
20260506023345 18 245 8.0 17.7 0.00 0.00 0.00 61 1007.9
20260506022343 18 180 6.4 14.5 0.00 0.00 0.00 60 1007.9
20260506021344 18 181 8.0 17.7 0.00 0.00 0.00 60 1008.0
20260506021143 18 226 8.0 17.7 0.00 0.00 0.00 60 1008.0
20260506020344 18 243 8.0 16.1 0.00 0.00 0.00 59 1008.0
20260506015943 18 202 6.4 14.5 0.00 0.00 0.00 59 1008.0
20260506015344 18 221 8.0 14.5 0.00 0.00 0.00 59 1008.0
20260506014743 18 200 8.0 14.5 0.00 0.00 0.00 58 1007.9
20260506014344 19 227 8.0 17.7 0.00 0.00 0.00 58 1007.9
20260506013543 19 231 9.7 17.7 0.00 0.00 0.00 57 1007.8
20260506013344 19 234 9.7 16.1 0.00 0.00 0.00 57 1007.8
20260506012343 19 191 8.0 16.1 0.00 0.00 0.00 56 1007.6